RH
57 58 60 61 67 74 78 79 81 86 90 94 97 99 98 96 92 86 83 82 81 80 81 81 83 85 85 84 82 82 83 84 85 85 85 86 86 87 88 90 90 89 90 89 88 90 89 88 88 87 90 91 92 94 92 92 93 93 96 95 91 93 92 84 79 81 92 96 92 87 80 75 73 62 50 43 37 33 30 27 25 23 21 19 17
59 60 62 64 68 74 78 79 81 83 87 93 97 99 99 98 94 87 82 82 81 81 82 82 85 86 85 84 83 84 85 86 86 86 86 86 87 88 89 90 90 90 90 89 88 89 87 87 87 85 86 86 85 87 87 89 93 93 94 94 90 90 90 85 78 78 84 86 83 80 73 69 66 53 39 33 30 28 25 21 18 17 15 13 13
61 62 64 65 68 72 76 78 80 82 84 89 96 99 100 99 94 86 83 82 82 82 83 84 86 86 85 84 84 85 86 86 87 87 86 86 87 88 89 90 90 89 88 88 87 87 85 83 83 81 80 79 77 78 82 85 89 89 88 88 84 82 86 85 78 79 82 81 82 78 65 59 57 46 33 28 26 23 20 17 15 14 13 11 11
62 65 66 67 69 71 74 76 78 80 80 84 92 98 99 97 91 84 83 84 83 83 84 84 86 85 85 85 85 87 87 87 88 87 86 87 87 89 90 89 89 88 87 86 84 83 81 78 75 73 70 69 67 68 71 74 77 77 75 74 73 71 78 83 80 80 80 77 77 71 57 51 49 43 34 26 24 23 17 15 15 13 13 12 11
63 67 68 69 70 70 71 73 76 78 78 80 88 95 96 94 89 84 84 85 84 84 84 84 85 85 84 85 87 88 88 88 88 88 87 89 89 89 90 89 88 87 85 84 82 78 76 72 68 65 62 60 58 57 58 59 60 62 62 64 68 69 74 81 82 79 77 73 67 59 51 48 45 43 35 25 29 34 23 15 15 12 13 14 13
63 68 70 71 71 70 70 71 73 75 77 78 84 92 94 92 88 85 86 86 84 84 84 83 84 85 84 86 88 89 89 88 88 88 89 90 90 90 90 88 87 85 83 80 78 74 71 67 63 60 57 55 52 50 49 49 49 50 52 55 60 62 65 67 66 66 67 65 59 53 50 49 45 43 37 30 39 47 35 26 25 18 13 14 14
63 69 72 72 71 71 71 71 72 75 78 79 82 88 92 91 88 86 86 85 84 83 83 83 84 86 87 88 90 90 90 89 89 88 89 90 91 90 89 88 85 83 80 77 74 70 66 63 60 57 55 52 50 48 45 44 43 43 44 45 45 47 51 51 48 51 58 58 52 49 49 48 45 45 46 46 51 54 50 48 45 31 17 14 15
62 70 74 74 73 73 73 73 73 76 79 81 82 86 90 89 87 86 85 84 84 83 83 84 85 88 90 90 91 91 89 88 88 88 88 90 91 90 88 86 83 81 78 74 71 67 63 61 58 55 53 51 49 47 45 44 42 40 39 40 37 39 47 52 49 49 53 53 51 49 48 48 48 49 52 53 52 53 59 65 61 48 31 20 20
64 72 76 76 77 76 76 75 75 77 79 81 83 86 89 88 86 85 85 84 84 83 83 85 87 89 91 90 90 89 89 88 87 87 88 89 89 89 86 84 82 79 76 71 68 66 62 59 55 51 49 48 46 45 43 41 41 39 38 38 36 35 42 51 53 50 49 50 51 51 49 49 52 56 57 58 60 63 66 65 61 57 48 36 32
65 74 78 79 79 79 78 77 77 77 78 80 82 84 87 87 86 85 84 84 83 83 84 86 88 90 91 90 89 88 88 87 85 85 87 88 89 87 85 83 81 77 74 70 66 62 58 53 49 46 45 43 42 41 40 39 37 37 36 35 35 32 34 46 55 55 53 54 57 57 55 56 63 67 66 68 72 72 69 64 59 58 56 47 42
66 75 78 80 81 80 78 78 77 77 77 77 78 81 83 85 85 84 84 84 83 83 85 87 89 91 91 90 89 88 88 87 87 88 88 87 87 87 84 81 79 76 72 68 62 57 53 49 46 46 43 42 42 40 39 38 36 36 34 33 35 33 35 49 61 64 64 62 65 70 68 69 77 81 80 82 83 80 75 71 66 63 61 54 46
63 71 75 77 80 79 77 78 77 75 74 74 74 77 80 83 84 84 84 84 83 84 86 87 90 91 91 90 89 89 91 93 95 97 94 88 85 85 85 81 78 75 70 65 60 55 52 49 47 45 43 42 41 39 38 37 35 35 33 33 35 35 37 47 57 66 75 74 75 79 80 84 90 93 95 94 90 89 85 75 68 67 67 62 54
59 66 71 74 78 78 77 77 76 74 72 72 73 75 78 83 85 85 85 84 84 85 86 88 90 91 91 91 89 92 97 99 99 100 100 91 83 83 84 80 76 73 67 63 59 55 53 49 45 44 42 42 42 40 39 37 36 36 35 34 36 38 42 47 52 60 68 76 87 90 90 96 99 99 101 93 85 88 85 70 65 69 69 64 56
58 63 67 72 76 76 76 76 75 74 72 72 73 75 78 83 85 85 85 85 85 86 87 89 90 91 92 90 90 95 100 101 98 100 102 93 82 80 81 79 75 71 66 62 59 55 52 48 45 44 43 42 42 40 39 38 37 35 34 33 35 39 42 48 64 74 71 76 90 91 89 98 101 100 100 88 76 76 70 57 58 62 57 52 48
58 61 65 70 73 75 76 76 76 74 73 74 75 75 79 83 86 87 88 88 87 86 88 90 90 91 91 89 90 96 100 100 99 100 102 95 83 78 79 78 74 71 67 63 59 55 50 47 46 45 44 45 49 51 52 53 52 46 40 36 34 38 43 46 66 90 95 95 100 98 97 102 100 100 103 89 68 58 53 50 54 53 46 44 46
58 60 63 68 72 74 75 76 76 75 75 75 76 77 79 82 86 88 88 90 90 87 87 90 90 91 90 87 90 96 99 100 100 100 101 97 84 77 78 78 75 72 68 62 58 54 49 47 47 45 47 52 56 61 65 68 73 72 65 55 41 37 43 45 52 67 76 81 85 85 85 81 72 79 98 95 69 48 49 56 57 55 51 48 47
59 61 64 68 72 74 76 76 76 76 77 77 78 79 80 83 87 89 89 90 90 88 88 91 91 91 88 87 92 95 96 100 101 99 101 99 89 78 76 78 77 74 68 61 57 54 49 47 46 45 50 52 52 63 74 79 85 89 88 83 65 45 41 42 39 38 38 40 44 47 49 46 41 48 66 74 61 47 53 60 57 57 56 49 47
61 65 68 72 75 75 76 76 77 78 78 79 81 82 82 84 88 90 90 90 89 88 89 91 92 90 88 90 94 94 94 99 101 100 100 101 92 77 71 77 78 73 68 61 55 54 50 46 43 43 47 48 54 76 95 97 97 98 96 91 73 52 44 40 34 30 30 32 35 37 37 37 38 40 44 50 51 50 56 58 54 59 60 53 55
66 69 71 74 75 74 75 76 77 79 81 83 85 85 85 88 90 90 91 91 91 89 89 92 94 91 90 94 96 95 96 99 101 100 100 100 91 74 67 73 74 69 65 59 55 55 50 45 43 40 39 48 65 89 102 100 99 99 96 88 71 52 43 37 28 27 29 33 36 37 36 36 38 42 44 46 49 50 53 54 54 60 64 63 65
70 72 72 73 74 74 75 76 78 81 84 87 88 88 88 90 91 91 92 93 94 92 90 93 94 92 92 97 99 98 100 100 100 101 100 96 87 72 65 68 68 64 62 57 56 55 48 45 44 36 39 61 83 96 100 100 97 90 84 81 70 54 43 34 27 28 31 34 36 35 36 38 39 42 44 46 49 51 50 52 53 56 63 68 69
71 71 71 73 74 75 76 79 81 85 88 90 90 89 89 91 91 92 94 95 94 92 91 93 96 95 96 98 100 100 100 100 100 100 98 94 85 71 63 63 63 61 59 57 57 56 50 46 41 37 55 83 95 97 99 99 94 88 83 78 63 47 40 33 27 30 34 37 38 37 39 42 42 43 46 46 48 50 49 49 49 51 56 61 65
69 68 70 71 73 75 78 81 84 88 91 92 91 90 91 91 92 94 96 96 94 93 93 96 100 102 101 100 101 101 100 100 101 99 97 95 85 69 61 60 60 58 57 56 55 54 50 44 36 44 74 95 97 100 102 97 95 98 98 85 61 43 38 32 27 33 40 40 40 41 44 45 44 43 44 44 44 44 44 46 45 45 47 48 52
66 65 67 67 70 74 78 82 86 90 92 93 93 93 93 93 94 95 96 97 97 96 97 99 102 104 103 101 102 101 100 100 101 100 98 95 82 65 58 57 56 54 52 51 49 48 45 39 34 51 83 98 97 97 94 88 92 95 85 67 50 40 35 29 29 38 43 42 43 46 46 45 43 43 43 43 42 41 41 43 42 41 41 39 37
67 67 67 67 69 74 78 83 87 91 94 96 95 95 95 94 97 99 98 98 101 101 100 101 102 101 101 101 102 101 100 100 101 100 98 93 77 60 54 53 51 48 46 45 45 44 43 38 35 50 78 93 90 83 76 74 77 71 56 46 42 37 32 29 33 40 44 47 50 48 46 45 44 44 45 43 41 40 38 38 37 35 34 31 27
70 70 70 70 72 75 79 84 89 93 96 98 98 97 97 97 101 103 101 101 103 101 98 99 100 99 97 98 99 102 102 101 100 99 97 90 75 59 53 52 50 47 45 45 45 44 43 41 37 41 55 65 65 63 61 58 54 48 43 42 39 33 29 30 38 46 52 56 54 47 45 47 45 45 45 43 40 39 37 35 32 29 28 26 23
74 74 74 75 75 78 82 87 91 95 98 100 101 101 101 100 101 103 102 102 102 100 97 96 97 97 96 95 97 101 102 102 102 101 98 91 77 62 55 53 51 49 48 47 47 46 45 45 43 41 43 46 48 48 47 45 43 43 43 40 34 30 30 36 46 55 59 59 56 51 50 48 45 44 44 42 40 39 37 36 33 30 31 32 28
77 78 79 79 80 82 86 89 93 97 100 101 102 102 101 101 101 101 101 100 99 99 97 96 96 95 94 94 97 101 102 102 102 103 101 98 89 74 63 57 54 52 49 48 49 49 45 42 41 40 40 40 41 42 43 43 45 44 41 36 31 30 32 39 47 53 54 54 54 53 51 48 45 45 45 44 43 41 39 39 38 36 36 41 42
81 82 83 83 84 86 88 91 96 100 102 103 103 102 102 103 102 100 100 99 98 97 95 95 94 93 91 92 95 98 100 101 103 103 101 101 100 92 78 66 59 54 51 51 53 53 51 50 50 49 48 46 44 44 43 43 43 43 40 37 33 30 33 40 47 52 53 53 54 53 52 51 49 48 48 48 46 44 44 45 46 44 43 48 56
84 85 86 87 88 90 91 94 97 101 103 104 103 102 102 104 104 103 101 99 97 97 96 95 94 94 93 93 94 95 95 97 100 98 94 93 96 94 87 77 66 57 53 57 64 68 70 73 74 73 72 69 61 54 49 44 42 41 41 38 34 32 34 40 48 54 55 55 55 56 55 54 53 52 53 53 51 51 52 51 50 49 51 58 63
88 89 89 90 92 93 95 97 98 101 104 104 103 101 100 100 102 102 101 98 96 97 98 98 98 98 98 97 97 96 95 96 97 94 91 92 93 92 91 88 78 65 60 66 78 84 85 85 83 81 83 82 76 69 63 55 47 43 43 42 37 35 35 38 45 52 54 55 56 56 56 56 56 57 58 57 55 53 51 50 51 56 60 65 67
93 93 93 95 96 96 98 100 101 102 103 103 102 102 100 99 98 97 96 95 94 96 97 98 98 100 100 101 102 100 96 95 95 93 93 96 97 95 95 96 90 78 70 73 82 87 86 84 81 79 82 86 86 85 83 74 58 46 43 43 40 36 36 39 45 50 53 55 56 55 56 58 59 60 60 58 55 51 48 51 58 63 65 66 68
96 97 98 99 100 101 101 102 102 102 102 101 101 101 100 97 95 95 94 94 94 94 94 97 100 102 101 100 102 103 99 95 93 93 93 96 98 99 98 99 99 93 84 81 85 87 84 81 81 81 83 88 91 92 94 90 74 54 44 43 43 39 37 40 45 50 53 56 57 57 57 58 59 59 58 57 55 52 51 55 60 64 66 66 66
97 100 101 101 102 102 102 102 102 102 102 102 101 101 99 95 91 92 94 96 98 97 95 96 99 101 101 100 100 101 100 97 95 96 96 96 99 102 102 101 102 102 98 93 92 91 88 85 86 87 88 92 94 95 96 93 79 59 46 43 43 41 38 39 44 49 53 56 57 56 55 55 57 57 56 56 58 58 57 58 60 64 68 68 67
99 103 103 102 102 102 101 101 102 101 101 102 102 101 101 99 96 95 95 93 93 95 96 95 95 96 99 101 100 100 99 99 100 101 101 101 101 102 103 103 102 102 102 101 99 97 94 92 92 92 93 95 96 96 96 93 75 54 44 44 43 41 39 38 42 49 55 58 57 55 55 54 55 56 56 56 59 61 60 60 63 68 71 73 73
99 102 103 102 102 102 102 102 102 102 101 103 103 102 102 101 101 101 99 95 91 91 93 95 96 96 99 101 101 101 100 100 100 101 101 101 101 100 101 101 101 100 101 101 101 101 100 97 97 97 96 96 95 94 97 95 76 54 44 44 44 41 39 38 42 49 55 58 56 53 53 53 52 53 55 56 57 60 60 59 62 67 73 77 80
99 101 102 102 101 102 103 102 102 103 102 101 102 102 102 101 101 100 100 100 99 95 92 94 98 99 98 98 100 100 100 100 100 100 100 100 100 100 100 100 100 100 100 100 100 101 101 99 99 100 97 95 94 96 98 93 74 52 44 45 44 43 41 40 44 51 56 57 55 53 52 51 49 50 53 55 56 58 60 60 64 69 74 81 85
99 100 101 102 101 101 101 100 99 99 99 99 101 102 102 102 103 102 100 100 100 98 95 95 98 97 94 94 96 98 99 100 100 100 100 100 100 100 100 100 100 100 100 100 100 101 101 100 99 98 96 95 97 98 95 82 62 47 44 45 45 43 41 40 45 53 57 57 56 53 51 48 47 48 52 55 55 56 61 67 73 77 80 84 86
97 99 100 100 100 100 100 99 97 95 96 99 102 104 103 102 102 103 102 100 100 100 98 97 98 96 93 94 97 99 100 101 100 100 100 100 100 100 100 100 100 100 100 100 101 101 102 101 100 98 97 97 99 97 86 68 51 44 44 45 45 42 40 41 46 54 57 57 56 53 50 48 47 50 55 59 60 62 68 76 82 86 87 87 87
94 97 97 97 98 99 100 100 99 98 99 102 103 104 104 103 101 101 101 100 100 100 98 97 97 96 94 97 100 101 101 101 100 100 100 100 100 100 100 100 100 100 100 100 102 101 101 101 101 99 98 97 96 88 73 56 45 42 43 45 45 42 40 43 50 55 58 59 59 55 52 51 52 56 60 64 68 74 80 85 88 91 93 93 91
92 96 97 97 98 99 99 99 100 101 102 103 103 103 103 102 101 100 99 100 100 99 97 96 96 95 97 101 103 102 101 100 99 98 99 100 100 100 100 100 100 100 100 101 101 100 98 98 99 98 97 96 90 77 61 49 43 43 44 45 44 41 40 44 52 57 60 62 60 58 57 57 60 64 67 71 76 84 89 91 91 93 96 97 96
92 96 97 98 98 98 99 100 101 102 103 103 104 104 103 103 103 102 100 100 100 99 97 97 96 98 101 102 99 99 101 101 99 98 99 100 100 100 100 100 100 100 101 101 100 97 96 98 98 97 96 92 82 67 54 45 43 44 45 44 41 39 41 45 52 58 62 63 62 61 62 65 67 70 72 76 82 88 92 93 94 95 96 96 96
93 96 99 100 99 100 102 104 102 101 102 103 105 105 103 103 104 102 100 100 100 99 99 99 97 100 103 99 94 97 102 101 99 100 100 100 100 100 100 101 102 101 101 100 99 98 98 99 99 97 93 85 72 59 49 44 43 44 44 43 40 40 42 47 54 60 64 65 65 65 66 68 70 72 76 82 87 91 92 94 95 96 96 95 95
92 95 98 98 98 99 101 102 102 102 103 104 105 105 104 104 104 101 100 101 100 100 100 99 97 99 102 99 95 98 102 101 99 100 100 100 100 101 102 103 103 100 98 99 100 100 100 100 97 93 86 77 65 54 46 43 44 44 44 42 41 41 43 49 57 64 67 69 69 70 70 71 73 75 80 85 90 91 92 93 94 95 95 96 96
92 95 97 97 97 97 98 99 102 104 104 102 101 102 103 104 102 101 100 100 100 100 101 100 99 99 101 100 99 100 101 100 100 100 100 100 102 103 103 104 101 96 96 98 99 98 97 95 92 86 79 70 59 49 44 43 44 45 44 43 42 41 45 52 61 68 71 73 73 73 74 75 77 80 84 87 90 92 92 93 95 96 96 97 96
93 96 99 100 100 100 100 101 103 104 103 102 101 102 103 103 101 100 100 100 100 100 100 100 100 100 100 100 100 100 100 100 100 100 100 103 105 104 103 102 99 95 95 96 95 93 92 90 85 79 72 62 51 44 41 42 44 45 44 43 42 43 48 56 65 70 72 74 75 76 77 77 79 81 84 85 87 89 90 91 93 96 97 96 95
94 97 100 102 102 101 100 101 102 103 104 105 103 102 102 102 101 100 100 100 100 100 100 100 100 100 100 100 100 100 100 101 100 100 101 104 105 105 102 99 96 95 95 95 93 91 89 86 81 73 63 52 44 41 41 43 44 45 44 43 43 46 52 60 67 71 73 74 76 77 78 78 78 79 81 82 82 85 87 88 90 94 96 95 95
93 96 99 101 102 101 100 99 99 101 103 105 105 103 103 102 102 101 101 100 101 102 101 100 100 100 100 100 100 100 100 101 100 101 103 103 102 102 100 98 96 95 95 93 92 91 88 83 77 68 56 45 40 40 43 44 44 44 43 43 44 48 55 63 68 71 72 74 75 75 76 78 78 77 77 79 80 82 86 87 88 90 93 93 94
91 95 98 100 101 102 102 100 100 99 100 103 104 104 104 104 104 103 101 100 101 102 100 100 100 100 100 100 100 100 100 102 102 103 104 103 101 99 98 96 95 94 93 91 90 88 84 79 73 62 50 41 40 42 43 44 44 43 43 44 46 51 59 66 69 71 72 73 73 74 75 76 76 75 74 74 76 79 83 84 84 86 89 91 93
91 94 97 98 99 101 102 103 103 103 104 105 104 104 104 104 104 103 101 100 100 100 100 100 100 100 100 100 100 101 101 102 103 103 102 101 100 98 96 93 91 89 88 87 84 81 78 74 66 54 44 39 41 43 43 42 43 42 42 44 47 54 62 67 69 70 72 72 72 73 74 73 73 72 71 72 74 77 80 82 83 86 90 92 93
91 92 93 95 97 99 101 103 105 106 106 106 105 104 104 104 104 103 102 101 100 100 100 100 100 100 100 100 100 102 104 104 103 102 101 100 99 96 92 88 84 80 78 76 72 69 67 62 53 45 40 40 42 42 41 41 42 42 43 45 50 57 64 68 68 69 71 72 72 72 72 71 70 69 69 71 73 74 75 78 83 89 94 96 96
93 92 92 94 97 100 103 106 107 107 107 107 107 106 105 105 105 104 103 101 100 100 100 100 100 100 101 100 100 103 104 103 101 100 99 97 96 93 88 82 76 71 67 63 58 54 52 47 43 41 41 41 41 40 40 41 42 43 43 46 53 60 65 67 67 68 70 71 71 70 69 68 68 68 68 70 71 71 72 76 81 88 95 98 98
Wind_Speed
1 2 3 3 4 4 4 5 6 6 6 6 6 6 6 6 7 8 8 7 7 7 6 6 5 6 6 7 8 8 9 9 9 10 10 9 9 9 9 9 8 8 8 7 7 8 8 8 8 9 9 8 7 6 6 6 6 5 4 4 4 3 2 1 1 2 1 0 0 1 4 5 5 7 8 8 9 10 11 12 13 14 14 14 14
1 0 1 1 2 2 2 4 5 6 6 6 6 6 6 6 7 8 7 6 6 5 5 4 4 5 6 7 7 8 8 9 9 9 9 9 9 9 9 9 8 8 7 7 8 8 8 8 8 9 9 8 7 7 7 6 6 5 4 4 4 4 3 2 1 2 2 1 0 1 4 5 5 7 9 9 10 11 13 13 13 14 15 16 15
4 3 2 1 0 0 1 2 4 5 6 7 7 6 6 5 6 7 6 5 5 4 4 4 4 5 5 6 7 7 8 8 8 8 8 8 8 8 8 8 8 7 7 7 8 7 7 7 8 9 8 8 7 8 8 7 7 7 6 6 6 5 4 2 1 2 3 2 1 1 3 4 5 7 10 10 10 11 13 13 12 14 16 16 14
6 5 4 3 2 1 1 2 3 4 6 7 7 6 5 5 5 6 5 4 4 4 4 5 5 5 5 5 6 6 7 7 7 7 7 8 8 8 7 7 7 7 7 7 7 6 7 7 8 8 8 8 8 9 9 8 7 7 7 7 7 6 4 3 2 2 3 3 1 2 3 4 4 7 10 10 9 11 13 11 10 14 16 15 11
8 7 6 5 4 3 2 2 3 4 6 7 7 5 4 5 5 5 4 4 4 4 4 5 5 5 5 5 5 5 6 6 6 6 6 7 7 7 7 6 6 6 6 6 6 6 7 7 8 8 8 8 9 10 9 9 8 8 8 9 8 7 6 5 4 4 4 4 2 2 3 4 4 6 10 11 9 11 14 13 12 15 17 13 9
10 9 8 6 5 4 3 3 3 4 5 6 6 5 5 5 5 5 4 4 5 5 5 5 4 4 4 4 4 4 5 5 5 5 6 6 7 6 6 6 6 6 6 6 6 6 7 7 8 8 8 9 9 9 9 9 9 9 10 10 9 8 8 7 6 7 6 5 3 2 4 5 5 6 10 13 10 10 16 16 14 17 18 13 9
12 11 10 8 7 6 5 4 4 3 4 5 6 5 5 5 5 5 5 5 6 5 5 4 3 3 3 3 3 3 4 4 4 5 5 6 6 6 6 5 5 5 5 5 6 6 6 7 7 7 8 8 8 8 8 8 9 10 10 10 9 9 9 8 8 7 6 4 3 3 4 5 6 6 9 12 9 9 15 17 14 18 20 15 11
13 13 12 10 8 7 6 5 4 4 4 4 5 6 5 5 5 5 5 6 6 6 5 3 2 2 2 2 2 3 3 3 3 4 4 5 5 5 5 4 4 4 4 5 5 5 5 6 7 7 8 8 7 7 7 7 8 9 9 8 8 8 7 6 6 5 5 4 4 4 4 5 6 7 9 11 9 9 13 14 12 16 20 17 13
15 15 13 11 9 8 6 5 4 4 4 4 5 6 6 6 5 5 5 5 6 5 4 3 2 1 1 2 2 2 2 2 3 3 4 5 5 5 4 4 4 4 4 4 4 5 5 6 7 7 7 7 7 7 6 6 7 7 8 7 7 8 7 5 5 5 4 5 5 5 5 5 7 9 9 10 10 10 12 12 11 13 18 18 13
15 15 13 11 10 8 7 6 5 4 4 5 5 6 6 6 5 5 5 5 5 5 4 3 2 1 1 1 1 2 1 1 2 4 4 4 4 4 3 3 3 3 3 3 4 5 5 6 7 7 7 6 6 6 6 6 6 7 6 7 7 7 7 6 6 6 5 5 5 6 5 6 8 9 8 9 10 10 11 12 12 13 16 15 11
15 15 13 12 11 9 8 6 6 5 5 5 5 6 6 6 5 5 5 5 5 5 4 3 2 2 1 1 2 2 1 1 2 4 5 4 3 3 3 2 2 3 2 2 3 4 5 5 6 6 6 6 6 6 6 6 6 7 7 7 7 7 7 7 7 7 7 5 6 6 6 6 7 7 8 9 10 10 11 11 11 12 13 11 9
14 14 13 12 11 10 8 7 7 6 5 6 6 6 6 6 5 5 5 5 5 5 4 3 2 2 2 2 2 2 2 1 2 0 5 5 2 2 2 2 1 2 2 2 3 3 4 4 4 4 5 5 5 5 5 5 6 6 6 7 7 7 8 8 7 8 7 6 6 6 6 7 7 6 8 11 11 12 11 9 9 11 10 9 10
13 13 12 12 11 10 9 8 7 7 6 6 6 6 6 6 6 5 5 5 5 4 4 3 3 3 3 3 2 2 2 2 4 4 6 5 2 1 1 1 1 1 2 2 2 3 4 4 4 4 5 5 5 5 5 5 6 6 6 6 6 7 8 9 9 9 8 7 6 6 7 7 7 7 9 13 14 13 11 11 12 11 11 12 14
11 11 12 12 11 11 10 9 7 7 7 6 6 6 6 6 6 6 6 5 5 5 4 4 4 3 3 3 3 3 4 5 6 6 7 5 3 0 1 1 1 1 2 2 2 3 3 3 4 4 4 5 5 5 5 6 6 6 6 5 6 6 7 9 10 10 10 9 6 6 8 8 8 10 12 15 15 13 14 15 15 15 17 18 17
10 11 11 11 11 11 10 8 7 7 7 7 6 6 6 7 6 6 6 5 6 5 4 4 4 4 4 4 4 4 6 7 7 6 8 5 5 3 0 1 1 2 3 3 3 3 3 3 4 4 4 5 5 6 6 7 7 7 7 6 6 6 6 7 8 8 9 9 7 7 8 7 8 11 14 17 15 15 17 18 16 19 22 20 16
10 10 10 11 11 10 9 8 8 8 8 7 7 6 6 7 7 7 6 6 6 5 5 5 5 5 4 5 6 6 8 9 6 6 10 6 6 5 2 1 2 3 4 4 3 3 3 3 4 3 4 4 4 5 5 7 8 8 8 8 7 6 5 5 5 5 5 5 6 7 7 9 10 9 11 15 17 19 19 16 16 20 21 16 11
9 9 10 10 10 9 8 8 8 9 9 8 7 6 7 7 7 7 7 6 6 6 5 5 5 5 5 6 7 7 9 8 5 7 13 9 7 7 4 2 3 4 4 5 4 4 4 4 4 3 3 2 1 1 3 7 10 11 11 10 8 6 5 6 6 7 8 7 8 9 10 12 12 9 9 12 16 19 16 11 14 17 15 12 9
8 8 8 8 8 8 8 8 9 10 9 8 7 7 7 7 7 8 8 7 7 7 6 6 5 5 6 7 8 9 9 7 6 10 15 11 8 7 5 3 4 5 5 6 5 5 5 4 4 4 3 2 1 2 5 10 12 13 12 11 10 7 5 6 7 8 9 8 9 10 11 12 12 11 10 11 13 15 14 12 15 15 12 9 10
7 7 7 7 8 8 9 9 10 10 10 9 8 7 7 7 8 8 8 8 7 7 6 6 6 6 7 8 9 8 7 7 9 13 14 11 8 7 5 4 5 6 6 7 6 6 6 5 5 5 4 3 0 3 7 11 12 11 11 10 9 7 7 9 9 8 9 9 10 12 12 12 12 12 12 13 14 15 15 15 16 15 12 11 11
6 6 7 8 8 8 9 10 10 10 10 9 8 8 7 8 8 8 8 8 6 7 7 7 7 7 8 9 9 9 9 10 11 11 12 11 8 7 5 5 5 6 7 7 7 7 7 6 6 5 3 3 0 3 6 8 8 8 9 7 7 8 10 12 12 11 11 12 12 13 13 13 14 14 15 16 16 16 17 17 17 16 15 14 12
6 6 7 7 8 8 9 10 10 10 10 9 9 9 8 8 9 8 8 8 8 8 8 8 8 8 8 10 11 11 12 13 12 10 11 10 8 7 6 6 5 6 7 7 7 7 7 7 6 5 4 4 2 2 3 7 7 8 8 7 9 12 14 13 13 13 13 14 14 14 14 14 15 15 15 16 16 16 16 17 18 18 17 17 15
4 5 6 7 7 8 9 10 10 11 11 11 10 10 9 9 9 9 9 9 9 8 7 8 8 7 8 10 12 13 13 13 12 12 12 11 9 8 7 7 7 6 7 7 7 7 7 8 7 6 7 5 3 2 5 8 8 6 5 8 13 15 14 13 13 13 14 15 15 14 14 15 15 15 15 15 16 16 16 17 18 19 19 20 20
3 4 5 6 7 8 9 9 10 11 11 11 10 10 10 9 9 10 10 10 10 9 8 9 8 7 7 8 11 14 14 13 13 14 12 11 10 8 7 8 8 7 7 7 7 7 8 8 7 8 8 5 2 5 9 10 8 7 8 12 15 14 13 12 13 13 15 16 15 15 15 15 16 16 16 16 17 17 18 18 19 20 20 21 23
3 4 5 6 7 8 8 9 10 11 11 11 11 11 10 10 9 10 10 10 8 7 7 7 7 7 7 6 8 12 13 12 12 13 12 10 9 9 8 8 8 8 8 8 7 7 8 7 8 10 11 9 8 10 11 11 11 12 14 14 14 13 12 11 12 14 15 15 15 16 17 17 17 17 17 18 19 19 20 20 20 21 21 23 25
3 4 5 6 7 7 8 8 9 10 11 11 11 11 10 10 10 10 11 11 8 6 5 6 6 6 7 6 6 9 12 12 11 12 13 11 9 9 9 9 8 8 8 7 7 7 7 7 8 10 11 12 13 13 14 14 15 15 14 13 12 11 11 11 12 13 13 13 15 18 18 18 19 19 19 20 20 20 21 23 24 24 25 27 29
3 4 5 6 6 7 8 8 8 9 10 11 11 11 10 10 10 9 9 9 7 6 6 7 6 6 7 7 6 7 11 14 13 12 13 11 10 10 10 9 8 8 7 7 7 6 6 7 7 8 9 11 13 13 14 14 14 13 13 12 11 11 11 11 11 12 12 13 16 18 19 19 20 21 21 21 21 22 23 24 26 27 28 29 32
3 4 4 5 6 7 7 8 8 9 10 11 11 11 11 11 10 8 7 7 7 7 7 7 7 7 8 8 7 6 9 12 13 13 12 10 9 11 11 10 9 9 8 7 7 6 6 6 6 6 7 9 9 10 11 12 12 12 12 11 11 11 11 11 11 12 13 15 17 18 20 21 22 22 23 23 23 23 24 24 26 27 29 29 31
4 4 5 5 6 6 7 7 8 8 9 11 11 11 12 13 12 9 8 8 7 8 8 8 8 9 8 8 8 7 8 10 13 15 14 10 8 9 10 11 10 10 9 8 7 6 5 4 4 5 6 8 9 9 10 11 11 11 11 11 12 11 11 12 13 13 14 16 18 19 21 22 23 24 25 25 25 25 24 25 25 27 28 27 26
5 5 5 5 6 6 7 7 8 8 9 10 11 12 12 13 13 12 11 11 10 9 8 8 8 8 8 8 9 9 9 10 12 17 17 14 11 11 11 11 11 10 10 9 8 7 5 4 4 5 6 7 8 8 9 10 12 12 12 12 12 12 12 13 13 14 15 16 18 20 21 22 23 24 25 25 25 25 25 25 26 26 27 25 24
5 5 5 6 6 6 7 7 8 9 9 10 11 12 12 13 14 14 14 13 12 12 12 11 9 8 8 9 9 10 11 10 11 15 17 16 16 15 13 11 10 10 10 10 9 9 7 6 6 6 7 8 8 7 8 10 11 12 12 12 12 12 13 13 14 15 16 17 18 19 21 22 23 23 24 25 27 27 27 27 26 25 25 24 22
5 6 6 6 6 6 7 7 7 8 9 10 9 9 9 10 12 14 14 14 13 13 14 15 14 13 12 11 10 11 13 14 14 15 16 16 16 16 15 13 11 11 12 12 12 11 10 8 8 8 9 10 10 10 11 12 13 13 13 13 13 13 13 13 14 15 16 17 18 19 20 21 22 23 24 25 27 28 28 28 26 23 24 23 21
6 6 7 7 7 7 7 7 8 8 9 9 8 6 5 6 8 10 12 13 13 13 13 14 14 15 15 15 13 12 13 14 14 15 15 15 15 16 16 15 14 13 13 14 14 13 11 10 9 9 10 11 12 12 14 14 14 14 15 14 14 14 13 13 14 15 16 17 18 19 20 21 22 23 25 25 27 28 29 28 27 25 24 23 23
7 7 8 8 8 8 8 7 7 7 7 7 6 5 5 6 7 6 7 8 11 13 13 13 14 14 15 16 15 15 14 13 13 13 14 14 15 15 16 16 16 16 16 17 16 14 13 13 14 13 12 13 14 15 15 16 15 15 15 15 15 15 14 14 15 15 16 17 18 19 20 21 22 23 25 25 26 27 28 29 27 25 22 20 21
7 8 9 9 8 8 7 7 6 5 5 6 6 5 5 5 6 6 5 6 8 10 11 12 13 13 14 15 15 16 16 14 13 13 13 13 14 15 15 16 16 17 18 19 17 13 11 13 15 17 17 17 17 16 16 16 15 16 16 16 16 16 15 15 15 15 16 17 18 19 20 21 22 23 24 25 25 25 27 28 26 22 20 18 19
7 8 9 9 9 8 7 7 7 6 6 6 6 6 5 5 5 5 5 6 6 7 8 8 9 10 12 13 13 14 15 15 15 14 13 14 14 14 15 15 14 15 17 19 18 14 11 10 11 13 16 18 17 17 16 16 15 16 16 16 17 17 16 16 16 16 17 18 18 19 20 21 22 23 24 25 26 25 27 29 27 25 23 21 20
7 8 8 8 9 8 8 8 8 7 7 6 6 6 7 6 5 5 5 5 6 7 7 7 6 8 12 14 14 13 13 14 15 15 14 14 14 14 16 15 13 13 15 17 18 18 16 13 10 10 14 17 18 16 16 16 16 16 16 16 17 17 17 17 17 17 18 18 19 20 20 21 22 23 23 25 26 26 27 28 29 29 28 25 24
7 7 7 7 8 8 9 9 9 9 8 8 8 7 7 6 6 5 5 5 6 6 7 7 6 7 10 12 13 15 14 13 14 15 15 14 14 15 17 15 12 11 11 12 14 16 17 16 14 14 16 18 17 16 16 16 16 16 16 16 17 17 17 17 17 17 18 19 19 20 21 22 23 23 24 25 27 28 28 28 29 30 31 30 27
8 8 7 8 8 8 9 9 9 9 9 8 8 7 6 5 5 6 6 6 6 6 7 7 6 7 7 7 8 11 12 12 13 14 14 14 14 15 16 15 12 10 9 9 11 14 15 14 15 16 17 17 16 16 16 16 16 16 16 16 17 17 17 16 17 17 18 19 20 21 22 23 23 24 25 26 27 28 29 29 28 30 31 29 26
8 8 8 8 8 9 8 8 8 8 8 7 7 7 7 6 5 5 6 6 6 6 7 7 7 7 7 5 5 6 9 10 12 12 12 13 13 13 14 13 12 12 11 10 11 14 15 14 15 16 17 16 16 15 15 16 16 16 16 17 17 17 17 16 17 18 19 19 21 21 22 24 24 25 26 26 27 28 28 29 29 28 25 23 25
8 8 8 8 8 8 8 9 8 8 7 6 5 6 7 6 5 5 5 5 6 6 7 7 7 7 6 6 6 6 7 9 11 11 11 11 10 10 11 11 11 12 13 14 15 17 17 16 16 17 16 16 15 15 15 16 16 16 16 16 16 17 17 17 17 18 19 20 21 22 23 24 25 26 27 27 27 26 26 26 28 26 21 21 25
9 9 8 7 8 8 8 8 8 7 7 6 6 5 6 6 5 5 5 5 6 6 7 7 7 6 7 8 10 9 9 10 10 10 10 9 9 9 11 11 12 13 15 17 18 19 18 17 17 17 16 15 15 15 15 15 15 16 16 16 16 17 17 17 17 18 19 20 21 22 23 24 25 26 27 27 26 26 25 24 24 23 23 26 27
9 8 7 7 7 7 6 6 6 7 8 8 7 7 6 6 6 6 6 6 6 6 6 7 7 6 7 10 11 10 11 11 10 9 8 8 8 9 11 13 15 16 18 19 19 19 18 17 17 16 16 15 15 15 15 15 15 15 16 16 16 17 17 18 18 19 19 21 22 23 24 25 26 26 27 26 25 26 27 27 28 29 29 29 28
9 8 8 7 7 7 6 6 7 7 7 7 7 8 8 8 7 7 6 6 6 6 6 7 7 6 7 10 11 10 11 11 10 10 9 8 9 10 12 14 17 18 19 19 18 18 17 17 17 17 16 16 15 15 15 15 15 15 15 16 16 17 17 17 18 19 20 21 23 24 25 26 26 26 27 26 26 28 30 30 31 32 30 27 27
9 8 8 8 8 8 8 8 8 7 8 8 8 9 9 9 8 7 6 6 6 7 6 6 6 6 6 7 8 9 10 10 9 9 10 10 11 13 14 15 17 17 17 16 16 16 16 16 17 17 16 16 15 15 15 15 14 14 15 16 17 17 17 17 18 19 20 21 23 25 25 26 26 27 27 27 27 29 32 32 31 31 32 31 31
9 8 8 8 7 8 8 8 8 8 8 8 8 7 8 8 7 7 6 6 6 6 6 6 6 6 6 6 6 7 9 9 9 9 10 11 13 14 16 17 18 17 16 15 15 15 15 16 16 16 16 15 14 14 14 14 14 14 15 16 16 16 17 17 17 19 20 21 23 24 25 26 27 28 29 30 30 31 33 34 33 33 35 35 34
8 8 8 7 7 7 7 7 8 8 8 7 6 6 6 6 6 6 7 6 6 6 6 6 6 6 6 6 6 7 8 9 9 10 10 12 13 14 15 17 17 17 16 16 16 15 15 16 16 15 14 13 13 13 13 13 14 14 15 15 16 16 16 17 17 19 20 21 22 24 25 27 29 30 30 31 33 33 34 36 36 36 36 36 35
8 8 8 8 8 8 8 8 8 8 7 7 7 6 6 6 6 6 7 7 7 7 7 6 6 6 6 6 6 7 8 9 9 9 11 12 13 13 14 15 15 15 16 16 16 16 16 16 15 15 14 13 12 12 12 12 13 14 14 15 15 15 16 17 18 19 20 21 23 24 26 27 29 31 31 32 33 34 35 37 38 37 36 36 37
8 8 8 8 8 8 8 8 8 7 7 6 6 7 7 6 6 6 6 6 7 7 7 6 6 6 6 6 7 7 8 8 9 10 10 11 12 12 12 13 13 13 15 16 16 16 16 16 15 14 13 12 12 11 12 12 13 13 14 14 14 14 15 17 18 19 20 22 23 24 26 28 29 30 32 33 34 35 36 37 38 38 38 38 39
9 9 8 9 8 8 7 7 7 6 6 6 6 6 6 6 6 6 6 6 6 6 6 6 6 6 6 6 7 7 8 9 10 10 11 11 11 10 10 11 11 13 14 14 14 14 15 15 14 13 12 11 11 11 11 12 12 13 13 13 14 14 15 17 18 19 21 23 24 25 26 28 30 31 33 34 34 35 36 37 38 38 39 39 41
9 9 9 9 9 8 8 8 8 7 6 6 6 6 6 6 6 6 5 5 5 5 5 5 6 6 6 7 7 8 9 9 10 10 10 10 10 10 10 10 11 12 12 12 12 12 13 13 12 11 11 10 10 11 11 12 12 12 13 13 13 14 15 17 18 20 21 22 24 26 27 28 30 32 33 34 35 36 37 38 38 38 38 39 40
10 10 10 10 9 8 8 7 7 7 7 7 6 6 6 6 6 5 5 6 6 5 5 5 6 6 7 7 7 8 9 10 10 10 10 10 10 10 10 10 10 10 10 10 10 10 10 10 10 10 10 10 10 11 11 11 12 12 13 13 13 15 16 18 19 20 21 22 24 26 27 29 31 32 33 34 35 36 38 38 38 39 38 38 38
Wind_Direction
54 56 47 47 55 52 38 30 32 35 30 23 25 28 25 18 11 9 10 10 10 12 13 15 22 29 33 29 24 23 25 30 37 40 40 43 44 45 46 45 44 45 43 40 38 36 31 28 26 23 21 15 8 9 5 0 1 357 353 359 355 355 8 354 135 133 137 67 40 311 338 355 358 352 353 354 352 353 355 355 353 349 345 345 346
257 303 24 33 48 49 27 19 24 27 23 21 25 25 22 14 4 2 4 2 3 6 6 10 17 24 26 24 22 24 28 33 38 41 42 44 45 46 47 47 48 48 46 46 44 39 34 31 29 28 25 17 16 21 17 17 23 16 19 35 24 21 44 59 96 135 155 140 94 311 341 357 356 352 355 356 354 357 360 360 358 354 347 345 345
246 247 247 262 300 12 354 2 9 14 16 17 19 20 18 9 357 357 358 355 356 359 2 5 11 18 21 22 23 26 30 35 40 43 43 45 46 48 49 51 52 52 52 51 47 43 39 37 37 34 29 25 29 33 31 33 39 39 42 46 39 37 50 66 85 129 151 139 96 345 354 357 352 353 357 358 359 2 5 4 2 358 351 346 344
245 244 241 246 249 262 298 329 346 359 6 9 12 15 9 356 348 350 352 348 347 354 5 9 10 13 19 24 27 29 33 37 41 43 45 48 49 50 53 55 57 58 58 56 54 52 47 46 46 40 35 36 38 38 38 39 45 49 49 49 44 36 44 66 78 109 143 134 88 22 6 356 347 355 359 360 1 5 8 8 6 3 357 349 346
245 243 241 245 248 259 283 305 322 339 352 1 3 359 348 339 338 344 350 347 348 359 12 17 15 12 17 26 29 31 35 37 41 44 47 50 52 52 55 57 61 64 64 64 64 60 58 58 53 46 43 42 43 43 40 40 48 53 55 57 54 52 61 72 80 99 116 112 95 48 17 6 351 352 1 5 5 3 5 9 12 9 5 358 351
246 243 242 244 249 258 271 285 302 318 334 349 353 340 330 330 331 338 347 351 354 4 12 17 20 17 16 25 32 33 34 36 40 43 49 54 54 55 58 60 65 69 70 71 70 67 65 63 59 54 50 47 48 46 43 44 49 53 57 61 61 65 69 72 84 94 94 90 89 49 20 14 4 353 0 8 10 3 1 4 9 10 8 6 356
246 244 243 242 246 252 258 269 286 296 309 331 340 332 326 327 330 333 344 353 354 357 4 11 20 24 20 29 35 33 33 34 36 41 51 57 58 58 61 64 69 73 75 76 74 75 73 68 64 58 53 52 51 47 45 48 51 55 57 58 63 69 69 67 72 75 67 61 52 33 18 10 8 360 359 6 11 7 4 360 355 360 6 7 357
246 243 241 240 241 244 248 256 269 278 285 302 318 322 320 320 327 333 342 350 350 349 356 0 13 28 29 33 33 28 32 32 32 43 55 61 63 64 64 69 74 74 77 78 75 77 78 73 69 63 58 56 52 48 47 47 53 59 57 56 62 66 62 55 50 49 46 37 26 21 15 11 11 4 0 9 12 3 0 355 343 344 354 0 357
242 239 238 238 237 237 242 250 257 266 272 280 295 305 308 311 323 333 340 346 345 344 343 342 357 22 22 20 18 14 23 30 33 47 60 67 70 69 69 76 79 79 81 80 77 77 79 78 72 67 64 61 56 54 50 47 54 60 57 57 58 59 59 45 32 32 27 26 22 12 10 17 14 7 5 11 6 351 347 347 338 334 341 350 352
236 236 235 234 235 235 237 245 251 256 263 271 283 292 298 307 317 327 334 338 339 337 332 329 334 338 345 351 335 341 358 43 74 63 59 68 74 69 74 83 85 89 88 85 87 85 84 83 77 71 67 62 60 58 52 51 56 57 58 58 56 59 61 48 38 33 23 22 18 6 10 18 10 6 4 359 353 347 344 344 340 338 342 347 346
230 231 231 231 233 233 234 241 247 251 259 268 276 286 295 303 309 318 327 329 331 332 323 315 310 304 311 308 311 321 292 227 109 61 37 45 72 73 75 87 90 102 103 96 99 94 86 82 79 78 73 65 59 55 53 53 53 54 56 56 57 62 61 50 41 33 26 22 16 10 11 6 0 3 358 351 348 344 341 341 338 340 345 343 338
226 227 227 229 231 233 236 241 244 249 258 265 276 286 293 298 301 307 313 315 321 322 311 300 289 285 283 287 296 283 259 227 140 74 346 5 60 87 81 95 106 112 119 118 113 102 91 85 83 84 80 72 64 55 51 49 48 49 48 48 52 55 55 53 46 39 34 24 13 12 7 354 352 357 353 345 342 338 336 336 334 334 336 327 318
224 224 225 228 231 233 237 241 244 250 257 265 276 287 292 295 295 296 301 305 309 308 297 284 270 268 268 268 271 247 227 144 142 209 285 331 20 118 101 107 133 133 141 141 131 116 107 103 98 92 86 81 71 58 50 44 41 40 35 35 39 41 43 44 43 43 42 35 23 11 4 355 343 342 342 337 336 336 332 330 330 327 320 313 309
221 223 224 227 230 232 236 239 243 249 256 264 274 283 289 291 288 289 292 294 298 298 287 273 259 255 257 249 239 222 191 143 136 194 249 305 352 54 122 114 149 164 171 169 153 137 127 121 118 106 97 91 78 65 54 42 33 26 18 15 21 25 28 32 35 30 25 30 28 2 356 352 335 327 326 328 333 335 330 327 327 323 322 322 321
218 220 222 226 229 231 235 237 240 247 253 260 269 276 283 285 282 283 285 285 292 290 275 264 250 242 247 233 216 201 174 149 138 188 229 279 344 353 308 179 185 199 198 190 177 163 146 136 135 126 111 103 91 79 66 48 32 19 11 5 4 6 7 21 34 26 14 17 12 356 349 338 332 327 323 326 330 333 332 330 329 331 333 334 333
215 220 223 226 228 230 233 235 240 246 250 254 262 269 276 279 276 275 276 279 285 282 269 257 241 236 238 218 204 194 176 162 151 193 219 258 336 343 312 244 219 220 215 209 197 183 172 156 152 145 132 125 111 93 67 40 21 4 358 358 357 356 351 358 14 6 352 346 337 335 322 312 318 319 319 321 321 329 335 331 329 336 338 334 326
213 219 223 225 226 228 232 237 242 245 248 253 258 261 266 270 269 267 268 272 275 275 264 249 237 234 227 208 197 191 184 175 165 198 217 246 316 328 307 260 236 231 222 219 211 203 200 184 175 173 167 168 131 63 5 354 352 344 339 342 346 346 338 337 338 331 326 320 315 314 308 309 311 305 299 301 307 323 335 327 326 337 338 331 323
211 216 219 222 225 229 233 239 244 246 250 252 252 255 260 264 265 263 263 265 267 267 258 242 235 231 218 205 196 192 195 195 184 198 217 245 298 315 300 258 239 236 230 227 222 218 221 214 207 204 202 217 339 5 313 312 322 325 324 329 334 336 329 329 330 326 324 323 320 318 316 316 317 313 309 306 311 326 334 329 333 339 335 327 318
208 213 217 222 228 234 237 241 244 246 249 249 249 254 258 260 262 261 260 261 264 263 255 239 231 226 214 205 200 196 199 199 189 197 220 249 289 309 293 252 241 240 232 233 234 229 230 232 232 231 222 218 329 0 308 297 302 310 315 325 333 334 332 332 332 330 329 328 326 325 323 322 324 325 326 327 328 331 332 331 335 335 325 319 315
209 217 226 231 235 239 240 244 246 246 247 247 247 252 256 258 261 261 258 258 258 258 252 237 228 224 213 207 205 196 190 189 188 201 229 255 291 308 285 247 240 241 235 235 237 234 238 241 240 240 225 204 137 353 306 283 288 308 317 322 325 329 333 335 336 337 336 335 331 329 328 330 333 333 332 332 332 330 330 329 328 327 322 316 313
219 229 237 239 242 244 245 246 246 244 244 243 244 250 253 256 261 260 256 255 255 255 251 239 231 227 219 212 206 200 199 199 201 214 237 261 297 306 276 244 233 235 237 237 235 234 238 240 236 226 198 178 102 44 259 260 291 322 330 324 323 330 333 333 333 335 336 336 336 335 334 334 335 335 331 329 327 324 324 322 320 321 319 315 310
229 240 245 247 248 249 247 246 244 241 240 239 243 249 252 254 258 256 251 252 254 253 249 241 234 231 228 220 210 208 212 217 222 233 249 271 296 297 270 245 232 229 233 236 235 236 238 236 228 211 191 170 107 132 223 258 295 323 323 313 319 326 329 328 331 335 335 336 336 336 335 334 333 332 329 325 322 320 319 318 318 318 316 313 309
249 254 254 253 252 251 248 246 242 239 239 239 242 245 248 252 255 253 250 251 253 253 250 244 237 232 232 227 219 217 219 223 232 242 254 272 286 286 268 249 238 232 232 233 235 237 240 237 225 210 195 179 188 233 242 262 285 291 293 302 312 319 323 325 329 332 332 333 333 332 332 333 332 331 328 324 320 319 319 318 317 317 315 314 313
272 268 260 254 252 251 248 245 241 238 236 237 238 241 246 248 249 250 250 248 247 249 246 238 232 229 227 223 221 222 221 222 232 241 249 265 278 277 264 252 244 239 235 236 237 237 238 235 225 216 211 212 233 253 262 275 283 287 295 304 311 317 321 323 326 329 330 330 328 329 331 332 331 330 327 323 320 320 321 319 318 319 319 318 318
269 262 259 257 255 254 251 248 243 238 235 234 236 240 245 246 244 245 247 243 238 237 233 225 222 225 226 223 220 219 220 221 228 238 248 259 266 264 259 254 249 245 241 242 243 239 234 230 228 230 231 238 251 266 276 283 286 291 298 305 310 313 316 319 323 326 325 322 322 325 328 328 328 327 325 323 322 323 324 323 323 325 326 325 323
264 257 256 256 256 257 258 254 247 240 236 235 237 239 242 243 241 240 240 236 229 227 229 228 225 226 227 227 221 218 223 225 228 236 245 251 254 255 256 252 245 242 241 240 238 237 236 236 239 245 251 257 263 271 278 284 289 295 299 303 306 308 310 314 318 318 316 316 318 321 323 324 325 326 326 325 326 327 327 327 327 328 329 328 325
270 259 256 257 259 260 260 258 254 247 241 239 239 241 242 239 235 229 224 222 222 225 226 225 225 227 230 230 224 220 225 227 227 230 235 237 241 247 251 249 243 240 240 239 236 236 240 246 252 259 265 271 277 281 284 288 292 296 301 304 305 306 306 308 312 313 312 314 315 317 321 324 326 328 328 328 329 329 329 328 329 329 329 327 323
274 266 260 260 263 263 262 260 256 250 246 244 242 242 243 241 237 232 226 221 220 225 227 227 227 229 230 230 226 223 223 224 225 227 228 223 221 233 244 247 243 238 236 235 233 233 236 246 263 278 287 293 297 297 295 296 297 297 301 304 306 308 309 311 313 314 314 316 318 319 323 325 326 327 328 328 329 329 329 329 329 327 327 326 320
271 267 264 265 267 267 265 262 256 252 250 250 248 247 247 245 243 243 245 242 236 233 235 237 235 233 234 234 230 229 231 230 229 233 236 237 235 241 249 251 247 241 236 232 229 229 231 244 266 284 298 301 300 296 295 299 301 301 302 306 309 311 311 311 312 311 311 315 318 319 322 323 324 326 327 326 327 327 327 327 326 325 325 323 316
273 268 264 264 266 266 265 262 259 255 253 253 255 257 258 256 252 251 253 254 249 242 242 244 243 242 244 243 238 237 240 242 243 245 248 250 249 251 254 252 247 242 237 232 229 230 234 244 259 272 284 292 294 291 292 297 300 300 302 305 308 309 308 308 307 306 309 315 317 319 321 323 323 324 324 323 324 325 326 326 325 324 323 319 311
279 274 267 260 258 259 258 258 258 255 252 253 256 259 262 263 262 260 260 260 255 247 244 247 249 249 249 250 249 249 251 253 255 254 253 251 251 252 253 249 243 240 238 236 235 237 242 249 256 266 277 285 290 293 297 301 301 299 300 303 305 307 307 304 302 305 311 316 318 319 322 322 321 321 321 322 323 325 325 325 324 322 320 316 307
274 268 261 255 252 253 254 256 257 256 255 254 253 251 252 260 266 267 265 265 263 256 250 249 249 248 248 248 249 252 256 258 257 254 251 249 250 252 253 251 246 241 239 239 240 242 246 250 254 262 272 280 286 293 299 301 299 297 298 301 303 306 305 302 302 307 313 316 317 319 320 321 320 320 321 322 323 324 324 323 323 321 317 314 311
267 262 256 253 252 252 253 255 255 253 252 252 249 244 245 252 260 266 266 265 266 263 259 253 248 244 245 246 246 249 255 261 261 256 253 251 249 249 252 252 250 245 239 236 238 242 247 252 257 263 269 276 283 290 297 299 297 294 294 295 298 302 304 303 305 310 314 316 317 319 320 320 320 321 321 322 322 321 321 321 321 320 315 311 311
264 259 256 253 251 252 253 252 251 251 251 252 252 248 248 254 262 267 266 264 262 261 259 257 252 248 246 247 246 247 250 254 256 255 253 248 242 242 246 250 249 246 242 238 239 242 245 251 258 264 269 275 281 287 293 297 295 292 292 294 298 301 304 306 309 312 315 316 317 319 320 320 321 321 320 320 320 318 318 319 318 315 312 308 307
268 261 258 255 254 255 254 252 253 255 253 254 256 255 256 259 262 262 263 264 262 259 258 256 254 250 247 247 247 247 246 245 245 245 245 242 234 229 230 231 229 227 230 235 239 242 244 248 254 261 267 273 280 286 291 293 292 290 292 294 297 301 305 309 312 314 316 316 317 318 320 320 321 321 319 318 318 317 316 317 316 314 312 309 305
280 271 265 260 257 257 256 255 255 256 257 258 259 260 261 263 261 258 258 258 259 262 263 260 256 250 246 244 244 246 245 242 240 238 237 237 231 222 219 220 218 215 219 227 236 242 246 250 252 256 265 273 280 286 290 290 287 286 288 290 295 300 304 309 312 314 315 317 317 319 321 321 321 322 319 317 317 316 315 315 316 315 315 312 308
291 284 276 268 263 260 259 259 258 257 259 262 265 265 264 263 260 260 260 257 255 259 262 263 264 262 255 248 243 243 243 242 240 238 235 234 231 225 222 222 222 220 219 223 233 242 248 254 258 262 268 275 281 285 288 287 285 285 286 289 294 299 303 306 309 311 312 316 318 320 322 322 321 322 321 318 317 316 315 315 315 315 315 315 311
295 290 282 274 268 264 262 263 262 261 261 262 262 262 261 261 259 259 258 258 257 259 260 260 258 257 257 254 246 242 241 240 239 236 232 230 228 226 226 227 226 225 226 228 235 242 249 255 261 267 273 277 280 283 284 284 283 284 287 290 295 300 303 305 308 310 314 318 320 321 322 322 322 322 320 317 315 315 315 316 315 314 315 316 313
298 293 287 281 275 269 265 263 263 262 261 259 259 259 259 261 259 256 256 257 256 257 257 257 256 254 253 252 248 241 236 234 233 230 227 225 224 223 225 228 227 228 233 236 239 247 255 260 264 271 276 278 280 280 280 281 281 283 287 292 296 300 302 305 308 313 317 319 321 320 320 320 321 320 319 317 315 315 315 315 315 313 311 310 311
306 300 294 289 281 273 268 264 261 259 257 256 258 259 258 258 257 255 258 259 258 259 258 256 257 258 253 247 245 242 235 233 232 229 225 224 223 222 224 228 230 232 237 241 246 255 263 268 269 273 277 278 278 278 276 277 280 283 288 294 296 298 302 305 309 314 317 318 318 318 318 319 320 320 318 317 315 314 313 313 313 313 309 307 309
309 305 300 294 283 275 271 266 261 259 258 258 260 260 257 259 260 259 261 261 260 263 264 261 263 263 259 257 257 253 247 243 240 236 232 228 227 228 230 234 237 240 242 247 254 262 268 271 271 274 276 275 275 275 274 275 279 284 289 293 294 296 301 306 310 315 318 317 316 317 318 319 320 318 317 316 315 314 314 312 311 312 311 310 311
306 303 300 295 284 277 275 269 265 267 266 265 265 263 262 264 264 262 263 264 264 265 266 267 270 268 264 268 269 258 249 248 246 242 239 235 232 236 241 243 246 248 249 254 260 265 268 269 269 271 272 271 270 271 272 274 280 284 287 291 293 297 301 307 312 316 317 315 315 317 319 320 320 318 317 316 315 315 314 313 313 314 314 313 313
304 301 297 294 287 279 275 272 272 273 271 268 267 267 268 270 268 264 264 262 262 265 267 267 271 270 267 273 275 260 247 247 246 242 242 240 237 243 249 251 254 256 256 258 261 263 263 265 267 267 267 266 265 267 270 274 279 283 286 289 293 297 302 307 312 316 316 315 316 318 319 319 319 317 317 316 315 315 315 315 315 315 315 313 313
306 302 297 294 288 281 277 274 273 273 271 269 269 269 269 269 265 261 263 261 259 262 264 264 269 270 267 270 269 255 245 245 243 241 241 241 243 248 252 254 258 260 259 257 257 258 259 262 263 263 263 262 262 264 268 273 277 281 284 289 293 297 303 309 313 314 314 314 315 317 317 317 316 316 316 316 316 315 315 315 315 314 314 313 313
306 301 299 294 288 284 281 277 274 274 274 273 272 268 266 264 260 257 261 263 260 262 264 263 265 267 263 261 257 247 243 245 245 244 244 245 247 251 253 256 260 262 259 255 254 254 255 257 259 260 260 260 261 264 266 270 276 279 284 289 294 298 304 309 310 310 312 313 314 315 315 314 314 315 315 316 316 315 314 314 314 313 313 313 312
304 299 295 292 288 286 283 280 278 278 275 272 270 267 264 262 260 259 261 263 263 265 266 266 266 264 261 258 254 249 248 249 248 247 249 250 251 253 256 260 262 261 256 253 252 250 250 252 255 257 258 258 259 262 265 270 276 281 284 290 294 297 302 306 307 309 312 313 312 313 313 313 313 315 315 316 316 316 314 314 315 314 313 313 311
302 297 292 290 289 287 285 284 282 279 275 270 268 268 268 267 265 264 262 264 265 266 266 266 266 262 259 258 255 253 254 254 252 251 254 257 257 258 259 261 262 257 251 249 247 246 247 249 251 254 257 257 258 262 266 271 278 283 287 291 294 297 301 305 308 310 312 312 312 313 313 312 313 315 316 317 316 315 314 314 315 315 314 312 311
301 295 291 289 290 289 288 289 286 281 279 274 270 269 270 269 268 267 266 265 266 265 263 265 266 263 260 259 257 255 257 258 258 258 260 260 261 261 259 258 256 251 247 245 244 243 245 248 249 251 255 256 257 262 268 274 280 286 289 291 294 298 303 307 309 311 312 312 312 313 312 312 313 315 316 316 316 315 315 315 314 314 314 313 312
297 292 289 290 291 290 289 289 286 282 279 278 276 275 273 269 268 269 268 267 267 267 265 265 266 265 263 261 259 259 262 264 264 264 263 262 261 259 256 253 249 246 244 244 244 243 244 245 247 249 252 255 259 265 271 277 283 287 289 292 296 301 304 307 309 311 312 312 312 313 313 313 315 315 316 316 316 315 315 315 314 314 313 313 313
292 288 286 287 288 289 287 285 283 280 278 277 276 275 273 272 272 270 270 270 270 269 268 267 267 266 266 265 263 263 265 266 265 265 264 262 258 254 251 248 246 244 243 243 243 242 242 242 244 246 250 256 261 268 275 282 287 289 291 295 299 303 305 307 310 312 312 311 312 313 313 314 315 315 315 316 316 316 315 315 313 312 312 311 311
290 285 283 282 283 285 285 284 282 280 277 275 275 274 274 276 276 273 274 274 272 270 270 269 268 267 267 265 265 265 264 264 263 261 260 257 254 250 248 246 245 245 244 242 239 238 238 238 241 246 251 257 265 273 281 287 289 291 295 299 301 304 307 309 311 312 312 312 312 313 314 314 314 315 315 316 316 315 315 314 313 312 312 311 310